Content
SEND FEEDBACK

Daily
Averages
Monthly
Summary
Iran

MASHHAD, IRAN


Home > Middle East > Iran
Elevation: 3214 feet     Latitude: 36 16N     Longitude: 059 38E

WEATHER
 
SELECT A DAY
Number of Records: 213,583;   Date Range: 2/9/98 - 12/18/14
 
SHARE

PRINT THIS DATA

[ ← Previous Day ]
WEATHER ALMANAC - MARCH 16, 2013
[ Next Day → ]
[ °C ]   °F
Weather ElementAverageHighLow
Temperature55.4 °F66.2 °F (3:00 pm)48 °F (3:30 am)
Dewpoint44.8 °F48.2 °F (2:00 am)41 °F (5:00 pm)
Humidity69.2 %94 % (2:00 am)35 % (3:30 pm)
Barometer30.13 in30.24 in (12:20 am)29.99 in (3:30 pm)
Wind Speed7.4 mph20.7 mph (6:20 pm)
Weather ElementAverage
Visibility6 mi
Wind DirectionESE (120.5 °)

Weather ElementTotal
Precipitation---
Heating Degree Days7.9 (Base 65)
Growing Degree Days7.1 (Base 50)
Averaged from 74 records on March 16, 2013
WEATHER CONDITIONS BREAKOUT
WIND DIRECTION BREAKOUT
WEATHER BY HOUR - MARCH 16, 2013
[ °C ]   °F
Local TimeTemperatureDewpointHumidityBarometerVisibilityWind DirectionWind SpeedGust SpeedPrecipitationEventsConditions
12:20 AM51.8 °F46.4 °F82 %30.24 in6.2 miSE (140°)9.2 mphOvercast
12:30 AM51.8 °F46.4 °F82 %30.24 in6.2 miSE (140°)9.2 mphOvercast
1:00 AM51.8 °F46.4 °F82 %30.24 in6.2 miESE (120°)6.9 mphOvercast
1:20 AM50.0 °F46.4 °F87 %30.24 in6.2 miENE (60°)4.6 mphOvercast
1:30 AM50.0 °F46.4 °F87 %30.24 in6.2 miENE (60°)4.6 mphOvercast
2:00 AM50.0 °F48.2 °F94 %30.24 in6.2 miENE (70°)6.9 mphOvercast
2:20 AM50.0 °F48.2 °F94 %30.24 in6.2 miEast (100°)6.9 mphOvercast
2:30 AM50.0 °F48.2 °F94 %30.24 in6.2 miEast (100°)6.9 mphOvercast
3:20 AM48.2 °F46.4 °F93 %30.21 in6.2 miESE (110°)4.6 mphScattered Clouds
3:30 AM48.2 °F46.4 °F93 %30.21 in6.2 miESE (110°)4.6 mphScattered Clouds
3:30 AM48.0 °F47.0 °F93 %30.16 in6.0 miESE (110°)4.5 mphMostly Cloudy
4:00 AM50.0 °F46.4 °F87 %30.21 in6.2 miESE (120°)6.9 mphMostly Cloudy
4:20 AM50.0 °F44.6 °F82 %30.21 in6.2 miSSE (150°)4.6 mphMostly Cloudy
4:30 AM50.0 °F44.6 °F82 %30.21 in6.2 miSSE (150°)4.6 mphMostly Cloudy
4:55 AM50.0 °F46.4 °F87 %30.21 in6.2 miSSE (160°)4.6 mphMostly Cloudy
5:20 AM50.0 °F46.4 °F87 %30.21 in5.0 miSSE (150°)4.6 mphMostly Cloudy
5:30 AM50.0 °F46.4 °F87 %30.21 in5.0 miSSE (150°)4.6 mphMostly Cloudy
6:00 AM50.0 °F46.4 °F87 %30.21 in5.0 miSouth (170°)4.6 mphMostly Cloudy
6:20 AM50.0 °F46.4 °F87 %30.21 in4.3 miSE (140°)6.9 mphMostly Cloudy
6:30 AM50.0 °F46.4 °F87 %30.21 in4.3 miSE (140°)6.9 mphMostly Cloudy
7:00 AM51.8 °F46.4 °F82 %30.21 in6.2 miSSE (160°)4.6 mphMostly Cloudy
7:20 AM51.8 °F46.4 °F82 %30.21 in6.2 miSE (130°)4.6 mphMostly Cloudy
7:30 AM51.8 °F46.4 °F82 %30.21 in6.2 miSE (130°)4.6 mphMostly Cloudy
8:00 AM51.8 °F46.4 °F82 %30.21 in6.2 miESE (110°)4.6 mphMostly Cloudy
8:20 AM53.6 °F46.4 °F77 %30.21 in6.2 miEast (100°)9.2 mphMostly Cloudy
8:30 AM53.6 °F46.4 °F77 %30.21 in6.2 miEast (100°)9.2 mphMostly Cloudy
9:00 AM53.6 °F44.6 °F72 %30.21 in6.2 miESE (120°)6.9 mphMostly Cloudy
9:20 AM55.4 °F46.4 °F72 %30.21 in6.2 miESE (110°)6.9 mphMostly Cloudy
9:30 AM55.4 °F46.4 °F72 %30.21 in6.2 miESE (110°)6.9 mphMostly Cloudy
9:30 AM55.0 °F46.0 °F64 %30.18 in6.0 miESE (110°)6.7 mphMostly Cloudy
10:00 AM55.4 °F44.6 °F67 %30.18 in6.2 miSouth (170°)9.2 mphScattered Clouds
10:20 AM57.2 °F44.6 °F63 %30.18 in6.2 miESE (110°)6.9 mphMostly Cloudy
10:30 AM57.2 °F44.6 °F63 %30.18 in6.2 miESE (110°)6.9 mphMostly Cloudy
11:00 AM59.0 °F42.8 °F55 %30.15 in6.2 miSouth (170°)4.6 mphMostly Cloudy
11:20 AM60.8 °F42.8 °F52 %30.15 in6.2 miNNE (20°)4.6 mphMostly Cloudy
11:30 AM60.8 °F42.8 °F52 %30.15 in6.2 miNNE (20°)4.6 mphMostly Cloudy
12:00 PM60.8 °F42.8 °F52 %30.12 in6.2 miNorth (10°)4.6 mphMostly Cloudy
12:20 PM62.6 °F44.6 °F52 %30.12 in6.2 miENE (70°)6.9 mphMostly Cloudy
12:30 PM62.6 °F44.6 °F52 %30.12 in6.2 miENE (70°)6.9 mphMostly Cloudy
1:00 PM53.6 °F42.8 °F67 %30.09 in6.2 miESE (120°)4.6 mphMostly Cloudy
1:20 PM64.4 °F44.6 °F49 %30.09 in6.2 miEast (100°)6.9 mphMostly Cloudy
1:30 PM64.4 °F44.6 °F49 %30.09 in6.2 miEast (100°)6.9 mphMostly Cloudy
1:55 PM64.4 °F44.6 °F49 %30.06 in6.2 miEast (80°)9.2 mphMostly Cloudy
2:20 PM64.4 °F44.6 °F49 %30.06 in6.2 miESE (110°)6.9 mphMostly Cloudy
2:30 PM64.4 °F44.6 °F49 %30.06 in6.2 miESE (110°)6.9 mphMostly Cloudy
3:00 PM66.2 °F44.6 °F46 %30.06 inEast (80°)9.2 mphClear
3:20 PM66.2 °F44.6 °F46 %30.04 inEast (90°)9.2 mphClear
3:30 PM66.2 °F44.6 °F46 %30.04 inEast (90°)9.2 mphClear
3:30 PM65.0 °F44.0 °F35 %29.99 in6.0 miEast (90°)8.9 mphClear
4:00 PM64.4 °F42.8 °F45 %30.04 inEast (80°)6.9 mphClear
4:20 PM64.4 °F42.8 °F45 %30.04 inEast (80°)9.2 mphClear
4:30 PM64.4 °F42.8 °F45 %30.04 inEast (80°)9.2 mphClear
5:00 PM62.6 °F41.0 °F45 %30.04 inESE (120°)9.2 mphClear
5:20 PM62.6 °F41.0 °F45 %30.04 inSE (130°)9.2 mphClear
5:30 PM62.6 °F41.0 °F45 %30.04 inSE (130°)9.2 mphClear
6:00 PM59.0 °F44.6 °F59 %30.04 inSE (140°)13.8 mphClear
6:20 PM57.2 °F44.6 °F63 %30.04 inSE (130°)20.7 mphClear
6:30 PM57.2 °F44.6 °F63 %30.04 inSE (130°)20.7 mphClear
7:00 PM53.6 °F44.6 °F72 %30.06 inSSE (150°)11.5 mphClear
7:20 PM53.6 °F44.6 °F72 %30.06 inSE (130°)9.2 mphClear
7:30 PM53.6 °F44.6 °F72 %30.06 inSE (130°)9.2 mphClear
7:55 PM51.8 °F44.6 °F76 %30.06 inSSE (160°)4.6 mphClear
8:20 PM51.8 °F44.6 °F76 %30.06 inSSE (160°)4.6 mphClear
8:30 PM51.8 °F44.6 °F76 %30.06 inSSE (160°)4.6 mphClear
8:55 PM51.8 °F44.6 °F76 %30.09 inSouth (180°)9.2 mphClear
9:20 PM51.8 °F42.8 °F71 %30.06 inSSE (160°)9.2 mphClear
9:30 PM51.0 °F44.0 °F68 %30.03 in6.0 miSSE (160°)8.9 mph
9:30 PM51.8 °F42.8 °F71 %30.06 inSSE (160°)9.2 mphClear
9:55 PM51.8 °F42.8 °F71 %30.06 inSouth (170°)9.2 mphClear
10:20 PM51.8 °F42.8 °F71 %30.06 inSSE (160°)6.9 mphClear
10:30 PM51.8 °F42.8 °F71 %30.06 inSSE (160°)6.9 mphClear
10:55 PM51.8 °F42.8 °F71 %30.06 inSouth (170°)6.9 mphClear
11:20 PM51.8 °F42.8 °F71 %30.04 inSouth (170°)9.2 mphClear
11:30 PM51.8 °F42.8 °F71 %30.04 inSouth (170°)9.2 mphClear
Hourly data recorded from OIMM, located miles away from Mashhad, Iran







STORIES FROM OUR PARTNERS